Del Rio Laughlin AFB, TX

9:53 AM CDT on October 20, 2017 (GMT -0500)
Laughlin Air Force Base

Weather History for KDLF - August, 2013

Change the Weather History Date:

Monday, August 12, 2013

  Actual Average Record
Temperature  
Mean Temperature 86 °F -  
Max Temperature 96 °F 99 °F 107 °F (1996)
Min Temperature 75 °F 77 °F 71 °F (2014)
Cooling Degree Days 20    
Growing Degree Days 36 (Base 50)    
Moisture  
Dew Point 67 °F    
Average Humidity 55    
Maximum Humidity 83    
Minimum Humidity 34    
Precipitation  
Precipitation 0.00 in - - ()
Sea Level Pressure  
Sea Level Pressure 29.98 in    
Wind  
Wind Speed 11 mph (SE)    
Max Wind Speed 20 mph    
Max Gust Speed 29 mph    
Visibility 10 miles    
Events      
Averages and records for this station are not official NWS values.
T = Trace of Precipitation, MM = Missing Value Source: NWS Daily Summary

Daily Weather History Graph

Daily Weather History Graph

Search for Another Location

Airport or City:

Trip Planner

Search our weather history database for the weather conditions in past years. The results will help you decide how hot, cold, wet, or windy it might be!

Date:

Astronomy

Aug. 12, 2013 Rise Set
Actual Time 7:09 AM CDT 8:25 PM CDT
Civil Twilight 6:44 AM CDT 8:50 PM CDT
Nautical Twilight 6:14 AM CDT 9:20 PM CDT
Astronomical Twilight 5:43 AM CDT 9:51 PM CDT
Moon 12:30 PM CDT (8/12) 11:53 PM CDT (8/12)
Length of Visible Light 14h 06m
Length of Day
13h 16m
Waxing Crescent, 31% of the Moon is Illuminated
Aug 12
Waxing Crescent
Aug 14
First Quarter
Aug 20
Full
Aug 28
Last Quarter
Sep 5
New

Hourly Weather History & Observations

Time (CDT) Temp. Heat Index Dew Point Humidity Pressure Visibility Wind Dir Wind Speed Gust Speed Precip Events Conditions
12:58 AM 81.1 °F 84.0 °F 68.5 °F 65% 30.00 in 10.0 mi SE 11.5 mph - N/A   Clear
1:58 AM 79.9 °F - 68.7 °F 69% 30.00 in 10.0 mi SE 10.4 mph - N/A   Clear
2:58 AM 78.4 °F - 68.9 °F 72% 30.00 in 10.0 mi ESE 9.2 mph - N/A   Clear
3:58 AM 77.4 °F - 69.4 °F 76% 29.99 in 10.0 mi ESE 8.1 mph - N/A   Clear
4:58 AM 76.3 °F - 69.4 °F 79% 29.99 in 10.0 mi ESE 8.1 mph - N/A   Clear
5:55 AM 75.7 °F - 69.6 °F 81% 29.99 in 10.0 mi ESE 9.2 mph - N/A   Clear
5:58 AM 75.7 °F - 69.6 °F 81% 29.99 in 10.0 mi ESE 10.4 mph - N/A   Clear
6:58 AM 75.4 °F - 70.0 °F 83% 30.01 in 10.0 mi SE 10.4 mph - N/A   Partly Cloudy
7:58 AM 75.7 °F - 70.3 °F 83% 30.02 in 10.0 mi SE 10.4 mph - N/A   Clear
8:58 AM 78.4 °F - 71.1 °F 78% 30.02 in 10.0 mi SE 9.2 mph - N/A   Scattered Clouds
9:18 AM 80.6 °F 84.6 °F 71.6 °F 74% 30.07 in 10.0 mi SSE 9.2 mph - N/A   Mostly Cloudy
9:58 AM 81.5 °F 85.3 °F 70.3 °F 69% 30.03 in 10.0 mi SSE 10.4 mph - N/A   Mostly Cloudy
10:58 AM 82.4 °F 86.3 °F 69.8 °F 66% 30.03 in 10.0 mi SSE 9.2 mph - N/A   Scattered Clouds
11:58 AM 86.4 °F 90.0 °F 68.7 °F 55% 30.03 in 10.0 mi SE 9.2 mph - N/A   Partly Cloudy
12:58 PM 88.5 °F 91.6 °F 66.9 °F 49% 30.00 in 10.0 mi Variable 1.2 mph - N/A   Partly Cloudy
1:58 PM 91.6 °F 93.9 °F 65.5 °F 42% 29.98 in 10.0 mi SSE 12.7 mph - N/A   Partly Cloudy
2:35 PM 93.2 °F 94.9 °F 64.4 °F 38% 30.01 in 10.0 mi South 13.8 mph - N/A   Scattered Clouds
2:58 PM 94.5 °F 96.5 °F 64.6 °F 37% 29.97 in 10.0 mi South 13.8 mph 20.7 mph N/A   Partly Cloudy
3:42 PM 95.0 °F 97.0 °F 64.4 °F 36% 29.99 in 10.0 mi South 12.7 mph 20.7 mph N/A   Partly Cloudy
3:58 PM 94.3 °F 96.7 °F 64.8 °F 38% 29.95 in 10.0 mi SSE 13.8 mph 21.9 mph N/A   Partly Cloudy
4:09 PM 95.0 °F 97.0 °F 64.4 °F 36% 29.99 in 10.0 mi ESE 16.1 mph - N/A   Scattered Clouds
4:58 PM 95.5 °F 97.9 °F 64.6 °F 36% 29.92 in 10.0 mi SSE 18.4 mph 28.8 mph N/A   Scattered Clouds
4:59 PM 96.8 °F 99.0 °F 64.4 °F 34% 29.96 in 10.0 mi SSE 17.3 mph 28.8 mph N/A   Scattered Clouds
5:58 PM 95.7 °F 97.2 °F 63.5 °F 34% 29.90 in 10.0 mi SSE 19.6 mph 23.0 mph N/A   Clear
6:58 PM 95.0 °F 97.0 °F 64.4 °F 36% 29.89 in 10.0 mi SSE 13.8 mph - N/A   Clear
7:58 PM 93.4 °F 94.7 °F 63.9 °F 37% 29.89 in 10.0 mi SSE 12.7 mph - N/A   Clear
8:58 PM 91.6 °F 93.1 °F 63.9 °F 40% 29.91 in 10.0 mi SE 9.2 mph - N/A   Clear
9:58 PM 89.1 °F 90.3 °F 63.7 °F 43% 29.92 in 10.0 mi SE 5.8 mph - N/A   Clear
10:58 PM 87.1 °F 88.0 °F 63.7 °F 45% 29.94 in 10.0 mi ESE 8.1 mph - N/A   Partly Cloudy
11:58 PM 87.3 °F 88.6 °F 63.9 °F 46% 29.95 in 10.0 mi SE 11.5 mph - N/A   Partly Cloudy